Wind_Speed
8 9 5 6 10 9 4 6 5 11 11 10 10 9 13 14 15 12 11 11 15 14 15 20 25 30 31 34 37 36 34 35 35 34 32 28 25 23 16 14 10 8 9 11
6 5 8 13 14 13 6 5 6 7 14 8 8 7 8 9 9 18 17 17 15 10 13 16 24 26 29 33 36 37 34 33 36 31 29 27 23 20 15 11 10 10 9 6
6 7 6 8 7 3 7 6 6 5 11 16 7 10 10 13 13 13 17 17 15 17 16 18 24 30 29 30 33 33 33 35 31 28 26 26 23 22 16 18 16 12 10 8
5 5 2 9 5 9 11 17 13 7 10 15 13 15 10 18 23 23 19 16 14 14 14 22 32 33 36 37 33 31 27 27 29 30 28 26 22 20 19 16 12 11 7 5
3 4 9 16 7 2 8 25 17 8 11 10 16 2 7 11 18 21 22 20 18 30 31 27 30 32 28 25 28 28 27 30 32 28 25 23 20 19 16 12 8 3 5 8
3 2 8 4 4 4 10 14 8 6 11 11 11 0 7 9 20 24 24 19 17 21 22 23 19 25 30 24 26 25 25 21 19 21 23 19 16 13 8 4 3 6 9 11
4 6 10 3 11 13 1 10 19 22 24 17 7 10 6 8 10 13 18 16 25 21 20 26 34 37 31 30 24 22 19 16 8 15 8 5 5 6 6 5 9 11 12 12
3 7 16 16 11 2 9 28 25 30 29 21 11 6 4 8 5 10 12 22 28 27 28 32 37 43 30 29 33 34 30 24 20 12 8 10 12 10 11 10 12 15 15 16
5 6 11 14 10 11 16 17 23 28 22 8 10 9 6 7 11 14 18 19 30 34 33 32 38 46 38 33 38 33 28 23 17 15 17 21 26 19 16 13 15 16 21 24
5 4 9 16 20 13 21 24 32 36 13 7 14 14 14 13 13 17 17 21 35 35 32 30 39 46 51 46 39 21 23 35 39 27 27 26 19 16 14 17 21 17 15 11
8 16 15 13 6 19 27 26 28 33 4 19 20 16 18 16 17 18 21 29 35 35 34 34 43 42 31 17 10 19 22 31 32 29 23 11 11 14 12 10 3 6 8 5
12 13 5 16 15 20 22 27 27 22 12 10 22 22 22 18 15 20 21 30 30 32 30 23 26 25 18 16 15 24 26 20 11 9 9 8 7 4 8 6 9 7 11 13
16 7 10 22 14 18 16 16 25 25 15 22 18 23 21 20 16 23 19 20 22 25 29 26 23 18 17 23 21 17 10 9 8 3 3 8 5 6 6 18 17 17 14 10
10 6 17 8 9 9 7 15 24 22 9 21 23 22 27 19 19 20 20 21 23 26 28 30 30 26 22 19 14 12 9 6 8 11 8 10 13 16 14 11 6 10 11 17
21 19 17 6 4 2 6 17 25 21 16 8 24 23 20 18 16 20 25 25 26 26 25 27 27 21 19 17 15 12 14 13 12 16 17 15 13 13 12 10 10 12 19 21
9 8 11 6 8 7 13 15 9 10 14 5 16 20 21 20 27 27 25 26 27 19 26 30 26 23 19 19 22 19 18 17 16 14 13 12 12 13 10 11 13 15 16 16
9 10 7 6 4 10 5 13 3 9 13 4 17 27 24 23 27 26 27 28 31 30 30 28 23 22 22 20 22 22 20 17 14 13 13 12 12 11 10 8 10 12 11 12
9 9 8 4 3 7 15 18 19 23 15 18 23 24 22 21 19 26 27 31 31 27 24 19 16 16 19 20 18 16 15 14 13 13 11 11 9 7 8 10 10 10 11 12
8 5 3 9 6 9 11 6 11 20 21 26 26 20 23 23 25 24 26 26 25 22 22 22 22 23 22 17 13 10 10 10 11 12 11 8 8 10 11 8 6 8 11 13
13 11 18 15 17 12 9 11 21 23 26 30 27 24 20 20 26 26 26 20 21 25 25 23 22 22 20 15 11 13 14 15 16 14 12 11 11 9 8 7 7 10 12 13
13 16 14 11 12 21 23 26 27 21 23 29 24 19 20 24 29 29 21 15 20 23 23 20 20 19 16 13 11 12 13 14 14 12 10 8 8 8 9 8 7 10 10 12
11 14 13 15 13 16 22 25 26 24 25 25 25 26 25 22 22 20 18 24 20 17 19 16 16 16 15 12 13 13 13 12 12 11 9 9 9 8 7 6 5 8 10 12
15 17 20 18 15 17 26 20 25 27 23 21 21 21 21 20 23 20 10 19 19 16 14 14 12 11 11 11 12 12 12 12 12 11 10 9 7 6 5 5 7 9 12 14
13 18 19 21 26 24 13 19 19 15 13 11 14 17 21 21 15 13 21 17 15 14 12 12 11 9 9 8 8 9 9 8 7 7 6 5 4 4 3 5 6 7 9 11
13 14 17 18 11 7 12 7 9 15 20 17 16 15 14 13 19 20 17 17 14 11 9 9 10 9 10 7 3 3 3 3 3 2 1 1 3 4 4 6 8 9 9 8
13 15 14 12 6 8 10 12 12 15 19 17 14 14 17 20 22 20 17 14 12 8 9 13 9 8 8 5 3 4 6 5 3 5 7 7 9 11 12 10 9 7 7 6
21 20 17 18 18 19 19 17 14 13 18 21 21 19 22 21 20 17 14 14 10 9 10 10 8 8 7 5 5 6 7 7 7 7 7 8 11 12 12 11 9 8 9 7
Wind_Direction
273 257 279 272 295 302 207 211 176 269 209 233 220 211 233 193 184 175 179 181 178 181 178 181 186 184 183 186 187 188 188 195 204 210 212 212 214 213 213 222 211 222 220 233
290 321 331 310 298 291 240 269 273 256 258 196 210 157 168 172 200 190 192 183 182 170 171 175 178 180 179 183 185 185 185 192 206 205 210 210 209 199 182 175 191 206 205 223
274 351 329 316 263 346 298 263 222 287 287 294 251 207 189 161 168 211 201 187 177 178 174 167 167 173 179 183 183 180 183 190 192 189 189 195 195 173 184 206 190 195 211 231
275 3 258 242 316 299 279 273 271 266 272 280 263 230 218 186 184 199 194 191 180 172 170 171 170 175 176 177 170 173 169 172 171 160 161 163 171 185 192 183 187 200 228 278
210 205 281 291 268 297 19 312 298 240 270 270 282 272 250 197 187 189 188 191 182 181 180 171 168 168 153 139 147 145 145 155 159 163 166 173 182 182 182 191 194 227 272 277
160 197 250 303 285 356 342 300 257 255 259 273 292 187 246 218 198 189 186 183 182 169 161 153 120 110 100 91 99 108 130 142 159 172 170 173 183 176 167 171 255 274 279 284
210 233 265 229 311 313 231 260 334 315 297 274 225 220 238 199 183 180 181 149 148 130 111 108 110 110 104 107 100 115 126 128 117 5 82 76 210 192 204 230 258 269 275 290
183 218 262 18 358 1 320 313 316 310 292 266 229 171 124 75 92 159 124 125 124 115 113 114 115 109 100 98 98 91 82 63 62 39 340 305 252 239 233 238 256 275 279 279
212 244 312 328 296 297 306 320 325 326 286 242 139 103 82 58 73 100 116 109 111 111 107 103 106 107 103 109 111 112 114 117 119 262 221 244 239 231 236 252 263 279 278 275
338 285 291 314 305 342 330 324 321 312 259 114 101 117 105 94 91 101 105 110 113 108 103 102 109 109 120 125 129 137 163 164 160 195 231 230 249 268 278 277 277 284 291 298
257 286 292 282 340 327 316 316 312 305 125 121 106 100 112 106 107 111 111 115 114 112 116 121 125 132 141 162 197 196 174 163 183 202 227 251 281 289 296 302 335 334 331 26
267 278 239 283 310 318 312 316 310 288 103 85 116 120 116 109 109 110 113 119 118 124 123 128 140 152 163 182 193 174 162 172 184 207 266 284 289 133 63 2 335 354 111 88
256 259 295 286 314 335 320 330 317 323 119 114 107 112 106 112 108 104 101 105 109 109 117 129 139 147 165 149 143 153 143 165 209 221 79 100 47 26 42 90 88 73 55 36
242 270 283 299 330 306 6 2 348 302 56 102 109 100 111 106 107 103 106 104 109 107 108 112 114 115 115 128 136 135 129 128 120 109 71 67 80 86 89 95 57 39 23 360
259 253 251 234 231 155 49 18 348 335 15 71 93 100 93 109 115 117 116 119 110 111 113 116 118 122 129 129 128 126 129 114 104 103 95 87 79 71 63 54 31 6 359 356
255 248 200 176 215 177 130 95 331 347 319 39 89 97 96 114 110 106 109 115 113 103 105 110 110 112 118 120 119 114 107 111 106 93 78 69 54 46 37 30 23 15 15 7
251 277 206 211 163 145 127 126 82 286 301 260 108 112 121 113 97 97 100 107 111 114 118 115 112 112 111 115 119 116 110 101 92 77 63 53 48 43 38 30 27 28 19 18
271 258 192 117 171 167 166 167 173 222 249 124 105 112 118 113 113 112 108 111 109 107 108 110 114 111 104 106 107 104 96 86 75 74 72 69 70 71 56 47 38 36 30 28
292 23 48 116 216 323 334 282 274 189 136 112 109 105 105 111 114 118 119 113 113 113 122 116 114 111 109 107 109 103 93 84 80 83 82 87 82 73 73 78 75 66 51 36
256 241 233 248 236 202 191 204 106 91 103 108 110 108 108 114 117 110 109 107 124 134 132 126 119 116 112 106 98 105 110 114 115 113 111 109 105 107 105 90 76 65 53 43
56 73 76 85 86 91 94 97 100 95 98 105 108 108 107 111 118 118 113 115 130 140 132 122 116 117 108 98 98 103 106 110 109 102 102 101 100 95 91 82 75 67 49 35
39 58 47 52 56 65 83 91 95 96 99 101 107 113 116 114 123 124 129 132 136 132 121 118 120 126 114 104 107 108 112 114 114 116 121 118 112 106 98 94 57 33 21 14
46 59 59 47 53 62 60 64 107 113 113 115 114 120 122 134 134 127 121 142 133 124 123 119 123 132 122 101 101 106 115 120 122 126 120 116 112 100 86 47 39 24 20 16
57 63 74 73 73 66 55 48 55 71 98 115 122 137 140 129 110 130 140 139 132 137 130 132 134 137 141 114 102 104 107 127 127 117 105 94 87 83 51 35 35 17 10 10
75 71 81 77 74 80 83 103 87 96 96 89 94 99 117 135 138 134 136 136 138 138 126 136 134 137 153 151 127 114 143 142 136 136 162 255 278 296 314 322 333 332 330 338
72 66 48 42 46 26 62 94 101 134 120 106 110 109 110 113 116 121 129 132 125 117 138 149 148 149 168 175 195 226 240 241 268 267 259 266 276 285 291 301 318 312 301 288
77 89 91 74 73 78 77 67 85 116 131 134 128 127 127 129 132 133 137 146 152 143 148 161 176 190 195 195 205 239 250 253 263 262 266 271 273 282 287 287 280 291 290 269
Height
773 764 756 753 748 740 742 744 760 735 741 716 704 694 695 687 688 695 698 701 697 701 701 707 714 718 724 730 736 743 751 757 762 766 771 776 779 782 787 791 793 792 793 794
774 755 755 751 737 732 731 724 725 725 721 691 678 677 682 684 695 688 689 689 691 695 700 701 707 713 718 723 728 737 745 753 759 766 771 777 782 785 787 788 790 790 791 790
788 768 760 767 737 732 729 720 718 731 707 681 687 675 679 679 684 690 685 685 687 688 690 695 700 707 714 720 727 734 741 749 756 764 768 772 776 780 783 785 784 786 787 788
792 776 791 735 717 718 723 710 702 705 697 684 677 666 659 655 659 665 675 680 681 685 690 693 696 703 707 715 725 733 743 751 758 762 767 771 776 778 781 783 783 784 787 787
793 792 764 728 716 717 731 717 694 698 687 679 662 661 660 649 649 655 660 664 668 672 678 687 692 700 709 720 727 734 743 751 758 763 769 773 774 777 780 783 785 786 787 786
785 787 786 731 707 704 712 735 687 684 682 676 666 691 673 640 639 638 647 655 665 674 682 690 703 713 722 734 742 748 754 761 765 767 765 772 779 779 781 784 787 788 787 785
779 781 749 716 707 702 748 731 686 680 672 663 672 659 641 633 636 638 644 651 664 679 690 700 707 715 727 737 746 751 755 759 772 768 763 773 787 785 783 783 786 785 781 780
773 773 758 721 716 735 722 701 695 678 661 653 645 642 638 640 641 641 654 653 667 680 692 702 709 713 729 739 745 747 754 769 766 775 783 787 794 787 782 779 781 780 776 774
768 750 721 719 728 717 715 710 699 690 658 639 636 646 644 648 644 646 654 665 674 681 693 705 710 713 728 740 739 742 747 754 768 785 784 788 786 779 775 775 777 772 771 773
760 729 728 722 711 711 710 707 695 680 649 634 642 644 648 655 656 655 665 672 680 689 702 714 718 720 729 737 737 746 748 744 744 767 777 777 782 780 775 773 772 769 771 769
751 734 725 713 715 713 703 697 691 669 636 637 638 651 655 659 663 665 671 682 686 694 705 716 721 726 734 737 736 741 741 746 753 759 769 773 774 774 769 770 770 768 768 765
743 733 734 723 718 710 706 698 689 675 642 647 633 646 655 668 674 675 680 686 693 705 712 719 725 729 734 736 736 740 745 752 759 764 767 768 769 770 772 769 766 766 763 763
728 722 724 715 717 711 707 701 692 674 634 644 652 650 663 671 682 687 694 697 701 711 715 722 726 732 739 738 742 749 753 759 764 765 765 766 767 767 769 769 767 765 765 766
716 717 714 714 710 710 710 697 692 672 653 645 655 666 659 678 688 691 698 707 711 715 722 724 729 737 739 744 748 751 754 757 760 763 764 765 766 767 766 766 768 767 768 764
703 704 708 706 707 701 692 686 671 658 672 666 666 673 682 685 697 702 703 713 718 728 731 733 736 740 745 749 752 754 756 759 762 764 766 766 766 767 766 770 770 770 761 759
697 694 695 698 700 700 696 700 707 702 690 682 678 686 701 710 703 705 715 721 724 734 737 742 745 746 747 750 755 758 759 761 763 764 766 768 765 765 771 770 767 765 763 766
697 699 698 701 698 694 696 698 712 715 707 701 691 696 715 718 709 716 724 729 734 738 742 745 751 752 750 752 756 760 762 763 765 765 765 766 768 769 770 773 769 766 770 766
693 687 681 682 682 686 689 686 693 707 709 696 698 711 718 719 720 725 729 734 738 743 747 750 752 752 750 753 757 760 762 764 764 765 767 770 773 773 773 770 768 768 770 768
687 686 687 682 678 682 693 699 696 692 699 699 706 716 720 725 728 733 738 742 747 751 756 756 755 753 754 759 762 764 765 765 766 768 771 775 774 771 769 772 774 772 768 766
688 691 692 685 697 690 689 682 686 695 698 704 712 720 726 730 732 736 740 746 751 754 758 759 758 757 760 764 766 769 770 772 773 775 777 777 776 776 776 776 774 770 769 768
689 684 687 689 684 688 692 695 697 701 704 709 715 719 724 729 731 738 747 752 757 759 759 759 756 759 762 765 768 769 770 771 773 774 775 775 775 774 773 774 774 771 770 767
698 696 696 697 696 697 698 701 705 710 714 719 723 726 729 736 741 745 748 750 756 755 755 762 762 763 766 769 771 772 772 773 775 776 777 776 776 777 776 775 773 770 767 765
707 709 709 709 709 712 715 718 717 720 724 727 729 730 733 740 744 747 753 757 753 754 760 763 763 765 768 770 771 773 776 777 777 778 777 776 775 774 773 771 768 768 766 764
715 714 716 719 719 720 724 726 727 727 729 730 732 735 738 741 743 749 752 753 753 762 765 766 768 769 770 771 772 774 775 776 777 775 774 773 772 771 771 769 767 767 767 765
726 727 726 724 726 728 727 728 732 736 737 739 740 741 743 745 745 747 749 758 762 766 767 770 772 772 772 773 774 776 776 776 775 774 774 773 773 771 769 767 766 766 766 765
730 732 735 735 733 734 735 733 734 737 739 742 744 746 746 747 748 752 759 763 766 768 769 771 772 772 773 774 775 775 776 775 774 773 773 772 771 770 768 766 765 765 765 764
736 738 741 743 742 739 736 738 740 742 743 744 745 749 750 755 755 759 763 766 769 770 771 771 771 773 773 773 773 773 773 772 772 771 770 769 768 767 765 764 763 763 763 762